This demonstration page uses our WeatherBlox Daily Observations layout. Learn more.

Left ArrowRight Arrow

53.62937, 11.41316

Hourly Observations for July 25, 2018

Temp ( °F °C ) Dew Point ( °F °C ) Humidity (%) Winds ( mph kmh ) Pressure ( in mb ) Visibility ( mi km ) Precip ( " mm )
6:50 am 06:50 Mostly Sunny 66 19 64 18 94 94 ENE 1 2 29.97 1015 7 11 N/A
7:20 am 07:20 Mostly Sunny 72 22 63 17 73 73 VRB 1 2 29.97 1015 7 11 N/A
7:50 am 07:50 Mostly Sunny 73 23 63 17 69 69 VRB 1 2 30.00 1016 7 11 N/A
8:20 am 08:20 Mostly Sunny 77 25 63 17 61 61 VRB 1 2 30.00 1016 7 11 N/A
8:50 am 08:50 Mostly Sunny 81 27 64 18 58 58 VRB 2 4 30.00 1016 7 11 N/A
9:20 am 09:20 Mostly Sunny 81 27 64 18 58 58 NNE 3 6 30.00 1016 7 11 N/A
9:50 am 09:50 Mostly Sunny 82 28 64 18 55 55 E 5 7 30.00 1016 7 11 N/A
10:20 am 10:20 Mostly Sunny 84 29 64 18 51 51 E 5 7 30.00 1016 7 11 N/A
10:50 am 10:50 Mostly Sunny 86 30 63 17 46 46 NE 5 7 30.00 1016 7 11 N/A
11:20 am 11:20 Mostly Sunny 86 30 61 16 43 43 VRB 3 6 30.00 1016 7 11 N/A
11:50 am 11:50 Mostly Sunny 86 30 61 16 43 43 NNE 6 9 30.00 1016 7 11 N/A
12:20 pm 12:20 Mostly Sunny 88 31 61 16 40 40 NNE 5 7 30.00 1016 7 11 N/A
12:50 pm 12:50 Mostly Sunny 90 32 59 15 36 36 NE 6 9 30.00 1016 7 11 N/A
1:20 pm 13:20 Mostly Sunny 90 32 59 15 36 36 N 7 11 30.00 1016 7 11 N/A
1:50 pm 13:50 Mostly Sunny 90 32 59 15 36 36 NNE 7 11 30.00 1016 7 11 N/A
2:20 pm 14:20 Mostly Sunny 90 32 59 15 36 36 NE 7 11 30.00 1016 7 11 N/A
2:50 pm 14:50 Mostly Sunny 90 32 57 14 33 33 NNE 8 13 30.00 1016 7 11 N/A
3:20 pm 15:20 Mostly Sunny 90 32 57 14 33 33 ENE 9 15 29.97 1015 7 11 N/A
3:50 pm 15:50 Mostly Sunny 91 33 59 15 34 34 NE 9 15 29.97 1015 7 11 N/A
4:20 pm 16:20 Mostly Sunny 91 33 59 15 34 34 E 9 15 29.97 1015 7 11 N/A
4:50 pm 16:50 Mostly Sunny 90 32 59 15 36 36 ENE 10 17 29.97 1015 7 11 N/A
5:20 pm 17:20 Mostly Sunny 90 32 57 14 33 33 ENE 7 11 29.97 1015 7 11 N/A
5:50 pm 17:50 Mostly Sunny 90 32 59 15 36 36 NNE 9 15 30.00 1016 7 11 N/A
6:20 pm 18:20 Mostly Cloudy with Showers Nearby 84 29 63 17 48 48 NW 9 15 30.00 1016 30 48 N/A
6:50 pm 18:50 Mostly Cloudy with Showers Nearby 82 28 63 17 51 51 NNW 6 9 30.00 1016 30 48 N/A
7:20 pm 19:20 Mostly Cloudy with Showers Nearby 82 28 63 17 51 51 NNW 5 7 30.00 1016 30 48 N/A
7:50 pm 19:50 Mostly Cloudy with Showers Nearby 82 28 63 17 51 51 NE 7 11 30.00 1016 30 48 N/A
8:20 pm 20:20 Mostly Sunny 81 27 64 18 58 58 NNE 6 9 30.00 1016 7 11 N/A
8:50 pm 20:50 Mostly Sunny 81 27 64 18 58 58 NNW 3 6 30.00 1016 7 11 N/A

Powered by AerisWeather